COSMOS 375 DEB

Satellite information

Favourite Embed

Satellite Type and Status

DEBRISIN ORBIT

Key statistics

Satellite COSMOS 375 DEB at a glance.

Uptime

20134

Days in orbit

Revolutions

≈ 14.1

Per day

Orbit

LEO

Low Earth Orbit

Inclination

62.8

Latest

Satellite identification and parameters

Extended collection of information and parameters for COSMOS 375 DEB.

Object identification

Identified? True

Debris? True

Object name: COSMOS 375 DEB

International designator: 1970-091L

Object number (NORAD): 4634

Object ID (CCSDS): 4634

Country: COMMONWEALTH OF INDEPENDENT STATES (CIS)

Current information (Y/N): Y

RCS size: SMALL

Orbital parameters

Period: 102.416 minutes

Inclination: 62.7887 deg

SMA: 7251.134 km

Apoapsis: 1264.625 km

Periapsis: 481.374 km

RAAN: 295.1347 deg

Eccentricy: 0.05400885

Argument of periapsis: 59.2487 deg

Mean anomaly: 306.0605 deg

Mean motion: 14.06027618 rev/day

Mean motion (dot): 0.00011735 rev/day2

B* drag term: 0.0018558019 1/REarth

Two-line elements (TLE)

Creation date: Dec. 12, 2025, 10:14 a.m.

Reference frame: TEME

Reference center: EARTH

Epoch: Dec. 12, 2025, 5:41 a.m. UTC

TLE line 0: 0 COSMOS 375 DEB

TLE line 1: 1 04634U 70091L 25346.23717068 .00011735 00000-0 18558-2 0 9994

TLE line 2: 2 04634 62.7887 295.1347 0540089 59.2487 306.0605 14.06027618718066

Live tracking on map

Real-time ground track for satellite COSMOS 375 DEB.

In-orbit conjunctions

A list of the most updated potential collisions computed for object COSMOS 375 DEB.

Target Orbit TCA Probability of collision Miss distance Type
SL-8 R/B LEO 2025-06-11 01:01:15 0.0002794211 546.0 (m) ROCKET BODY
CZ-6A DEB LEO 2024-10-14 02:20:59 0.0002132949 874.0 (m) DEBRIS

Associated space launch

The I2P satellites were the first soviet coorbital ASAT system.

COSMOS 375 DEB was lifted into orbit during the mission ‘Tsiklon-2 | I2P 5’, on board a Tsiklon-2 space rocket.

The launch took place on Oct. 30, 1970, 2:36 a.m. from 90/20.

For more information about the launch, click the button.

Launch to space Tsiklon-2 | I2P 5
Tsiklon-2 | I2P 5

Agency: N/A

Status: Launch Successful

Launch date: Oct. 30, 1970, 2:36 a.m. UTC

Rocket: Tsiklon-2

Launch pad: 90/20

Location: Baikonur Cosmodrome, Republic of Kazakhstan

...

Latest news about this satellite

There are no fresh news available about this satellite. Check back as we update our databases every day.


Newsletter sign-up

Weekly statistics, charts and insights to help you stay on top of the space industry.